Radiation Dose at Monitoring Post of Fukushima Daini Nuclear Power Station
Date,Time,MP-1(microSv/h),MP-2(microSv/h),MP-3(microSv/h),MP-4(microSv/h),MP-5(microSv/h),MP-6(microSv/h),MP-7(microSv/h),Wind Direction,Wind Velocity(m/s),Rain
2017/04/22,00:00,0.375,0.229,0.388,0.359,0.327,0.190,0.159,north,3.3,No
2017/04/22,00:10,0.373,0.228,0.387,0.357,0.328,0.190,0.160,north-northwest,2.3,No
2017/04/22,00:20,0.375,0.228,0.387,0.360,0.327,0.189,0.160,north,3.2,No
2017/04/22,00:30,0.373,0.229,0.388,0.359,0.326,0.191,0.160,north,4.7,No
2017/04/22,00:40,0.373,0.229,0.385,0.357,0.328,0.191,0.160,north,5.2,No
2017/04/22,00:50,0.375,0.228,0.387,0.360,0.327,0.190,0.160,north,5.0,No
2017/04/22,01:00,0.374,0.229,0.388,0.357,0.327,0.190,0.161,north,5.5,No
2017/04/22,01:10,0.373,0.228,0.387,0.359,0.329,0.190,0.160,north,4.7,No
2017/04/22,01:20,0.375,0.229,0.390,0.358,0.326,0.190,0.160,north,3.9,No
2017/04/22,01:30,0.374,0.229,0.387,0.359,0.328,0.190,0.159,north-northwest,3.2,No
2017/04/22,01:40,0.374,0.229,0.387,0.359,0.328,0.190,0.159,north-northwest,2.7,No
2017/04/22,01:50,0.375,0.228,0.387,0.358,0.327,0.190,0.160,north,1.7,No
2017/04/22,02:00,0.373,0.229,0.387,0.358,0.328,0.190,0.160,north-northeast,0.7,No
2017/04/22,02:10,0.374,0.229,0.387,0.359,0.326,0.189,0.160,north-northwest,3.1,No
2017/04/22,02:20,0.372,0.229,0.387,0.358,0.327,0.191,0.159,north,3.1,No
2017/04/22,02:30,0.374,0.228,0.387,0.358,0.328,0.191,0.159,north-northwest,3.2,No
2017/04/22,02:40,0.374,0.227,0.387,0.359,0.326,0.190,0.161,north-northeast,3.2,No
2017/04/22,02:50,0.373,0.229,0.388,0.357,0.326,0.190,0.160,north,3.4,No
2017/04/22,03:00,0.373,0.229,0.387,0.360,0.329,0.190,0.161,north,3.0,No
2017/04/22,03:10,0.375,0.229,0.387,0.359,0.326,0.190,0.160,north-northeast,4.4,No
2017/04/22,03:20,0.373,0.228,0.387,0.357,0.328,0.191,0.159,north-northeast,4.5,No
2017/04/22,03:30,0.374,0.229,0.387,0.358,0.328,0.190,0.159,north-northeast,4.5,No
2017/04/22,03:40,0.374,0.228,0.387,0.357,0.326,0.190,0.161,north-northeast,4.7,No
2017/04/22,03:50,0.372,0.228,0.389,0.357,0.328,0.190,0.159,north-northeast,4.3,No
2017/04/22,04:00,0.374,0.228,0.387,0.359,0.327,0.189,0.159,north-northeast,4.2,No
2017/04/22,04:10,0.374,0.229,0.388,0.358,0.326,0.191,0.159,north,3.1,No
2017/04/22,04:20,0.373,0.228,0.388,0.358,0.328,0.190,0.160,north,3.9,No
2017/04/22,04:30,0.375,0.228,0.387,0.359,0.327,0.190,0.160,north,4.1,No
2017/04/22,04:40,0.373,0.229,0.389,0.358,0.327,0.190,0.160,north,5.0,No
2017/04/22,04:50,0.375,0.228,0.386,0.358,0.328,0.190,0.159,north,6.1,No
2017/04/22,05:00,0.373,0.228,0.387,0.358,0.328,0.190,0.160,north-northeast,3.7,No
2017/04/22,05:10,0.372,0.227,0.390,0.357,0.326,0.190,0.160,northeast,1.7,No
2017/04/22,05:20,0.374,0.228,0.387,0.359,0.328,0.190,0.160,north-northeast,2.0,No
2017/04/22,05:30,0.374,0.229,0.388,0.358,0.327,0.190,0.161,north-northeast,3.3,No
2017/04/22,05:40,0.373,0.229,0.389,0.359,0.329,0.190,0.160,northeast,2.2,No
2017/04/22,05:50,0.376,0.228,0.386,0.361,0.327,0.189,0.161,northeast,3.1,No
2017/04/22,06:00,0.375,0.228,0.387,0.358,0.327,0.190,0.160,northeast,4.4,No
2017/04/22,06:10,0.374,0.229,0.388,0.357,0.329,0.190,0.160,north-northeast,4.3,No
2017/04/22,06:20,0.375,0.229,0.387,0.359,0.328,0.190,0.161,north,3.2,No
2017/04/22,06:30,0.373,0.228,0.389,0.358,0.325,0.190,0.160,north-northeast,3.2,No
2017/04/22,06:40,0.374,0.228,0.389,0.359,0.330,0.190,0.159,north-northeast,2.9,No
2017/04/22,06:50,0.373,0.229,0.387,0.359,0.325,0.191,0.159,northeast,3.1,No
2017/04/22,07:00,0.373,0.228,0.387,0.357,0.328,0.190,0.160,north-northeast,3.0,No
2017/04/22,07:10,0.375,0.228,0.387,0.359,0.328,0.189,0.159,northeast,3.0,No
2017/04/22,07:20,0.373,0.228,0.385,0.358,0.326,0.189,0.160,northeast,2.6,No
2017/04/22,07:30,0.375,0.228,0.388,0.358,0.329,0.190,0.160,northeast,2.3,No
2017/04/22,07:40,0.374,0.228,0.389,0.358,0.325,0.190,0.158,east-northeast,1.7,No
2017/04/22,07:50,0.373,0.229,0.387,0.356,0.328,0.190,0.159,northeast,1.3,No
2017/04/22,08:00,0.375,0.227,0.387,0.358,0.326,0.190,0.160,north-northeast,1.6,No
2017/04/22,08:10,0.372,0.228,0.387,0.357,0.327,0.190,0.159,north-northeast,1.9,No
2017/04/22,08:20,0.374,0.227,0.388,0.358,0.326,0.189,0.158,north,2.2,No
2017/04/22,08:30,0.371,0.228,0.386,0.357,0.325,0.189,0.158,north-northeast,1.6,No
2017/04/22,08:40,0.374,0.227,0.388,0.359,0.326,0.190,0.159,northeast,1.1,No
2017/04/22,08:50,0.371,0.228,0.388,0.355,0.325,0.189,0.158,east-southeast,0.8,No
2017/04/22,09:00,0.375,0.226,0.386,0.358,0.326,0.190,0.159,east-northeast,1.5,No
2017/04/22,09:10,0.372,0.227,0.388,0.355,0.326,0.189,0.159,east,2.9,No
2017/04/22,09:20,0.374,0.228,0.386,0.357,0.327,0.190,0.160,east-northeast,3.0,No
2017/04/22,09:30,0.372,0.228,0.388,0.355,0.326,0.189,0.158,east,2.2,No
2017/04/22,09:40,0.374,0.228,0.387,0.359,0.325,0.190,0.159,east,3.1,No
2017/04/22,09:50,0.372,0.227,0.389,0.357,0.329,0.190,0.159,east,2.8,No
2017/04/22,10:00,0.373,0.228,0.385,0.357,0.325,0.190,0.157,east,2.2,No
2017/04/22,10:10,0.374,0.228,0.390,0.359,0.329,0.188,0.160,east-northeast,2.9,No
2017/04/22,10:20,0.370,0.227,0.386,0.355,0.327,0.191,0.160,east-northeast,3.1,No
2017/04/22,10:30,0.376,0.228,0.389,0.357,0.325,0.189,0.158,east,2.4,No
2017/04/22,10:40,0.372,0.226,0.386,0.356,0.329,0.191,0.160,east,3.0,No
2017/04/22,10:50,0.372,0.228,0.383,0.355,0.326,0.190,0.159,east-northeast,2.7,No
2017/04/22,11:00,0.374,0.226,0.387,0.360,0.327,0.190,0.158,east-northeast,3.0,No
2017/04/22,11:10,0.372,0.228,0.386,0.357,0.329,0.190,0.160,east-northeast,2.8,No
2017/04/22,11:20,0.377,0.228,0.389,0.360,0.327,0.189,0.158,east,2.2,No
2017/04/22,11:30,0.373,0.230,0.387,0.357,0.330,0.191,0.160,northeast,2.4,No
2017/04/22,11:40,0.375,0.228,0.389,0.359,0.327,0.190,0.160,northeast,3.4,No
2017/04/22,11:50,0.372,0.228,0.386,0.359,0.331,0.191,0.160,east-northeast,2.7,No
2017/04/22,12:00,0.376,0.228,0.389,0.358,0.328,0.190,0.161,northeast,2.4,No
2017/04/22,12:10,0.372,0.230,0.387,0.361,0.329,0.190,0.158,east-northeast,3.2,No
2017/04/22,12:20,0.376,0.227,0.388,0.357,0.328,0.191,0.160,north-northeast,2.8,No
2017/04/22,12:30,0.374,0.230,0.389,0.358,0.327,0.190,0.159,northeast,3.8,No
2017/04/22,12:40,0.375,0.229,0.385,0.360,0.330,0.191,0.161,east-northeast,3.3,No
2017/04/22,12:50,0.376,0.229,0.387,0.357,0.327,0.190,0.159,northeast,2.6,No
2017/04/22,13:00,0.373,0.228,0.388,0.357,0.328,0.189,0.159,northeast,2.9,No
2017/04/22,13:10,0.375,0.229,0.386,0.359,0.328,0.191,0.160,northeast,3.6,No
2017/04/22,13:20,0.374,0.228,0.390,0.356,0.326,0.189,0.159,north-northeast,4.8,No
2017/04/22,13:30,0.377,0.229,0.388,0.361,0.328,0.192,0.161,northeast,5.0,No
2017/04/22,13:40,0.374,0.228,0.391,0.359,0.329,0.191,0.160,northeast,5.0,No
2017/04/22,13:50,0.376,0.228,0.387,0.358,0.327,0.189,0.160,northeast,5.6,No
2017/04/22,14:00,0.374,0.229,0.388,0.363,0.330,0.190,0.160,northeast,5.9,No
2017/04/22,14:10,0.377,0.229,0.391,0.358,0.327,0.190,0.160,northeast,5.8,No
2017/04/22,14:20,0.373,0.230,0.386,0.360,0.330,0.189,0.161,northeast,4.9,No
2017/04/22,14:30,0.376,0.228,0.391,0.362,0.327,0.191,0.160,northeast,6.0,No
2017/04/22,14:40,0.373,0.229,0.387,0.359,0.330,0.190,0.160,northeast,4.0,No
2017/04/22,14:50,0.376,0.229,0.391,0.361,0.327,0.190,0.160,north-northeast,3.1,No
2017/04/22,15:00,0.372,0.229,0.387,0.360,0.331,0.191,0.161,northeast,3.0,No
2017/04/22,15:10,0.377,0.229,0.390,0.362,0.329,0.191,0.160,east-northeast,2.4,No
2017/04/22,15:20,0.374,0.229,0.389,0.361,0.328,0.190,0.161,east-northeast,1.5,No
2017/04/22,15:30,0.378,0.230,0.389,0.361,0.330,0.191,0.160,south-southeast,1.7,No
2017/04/22,15:40,0.374,0.229,0.388,0.359,0.327,0.190,0.161,south,1.7,No
2017/04/22,15:50,0.379,0.230,0.391,0.362,0.330,0.191,0.160,south,1.8,No
2017/04/22,16:00,0.374,0.229,0.389,0.361,0.329,0.191,0.160,southeast,1.4,No
2017/04/22,16:10,0.377,0.230,0.392,0.362,0.329,0.191,0.160,south-southeast,1.6,No
2017/04/22,16:20,0.374,0.228,0.389,0.361,0.329,0.191,0.161,southeast,2.0,No
2017/04/22,16:30,0.378,0.229,0.391,0.361,0.331,0.190,0.161,south-southeast,0.9,No
2017/04/22,16:40,0.376,0.229,0.390,0.362,0.331,0.190,0.161,south-southeast,1.0,No
2017/04/22,16:50,0.376,0.229,0.389,0.361,0.328,0.191,0.161,southeast,0.8,No
2017/04/22,17:00,0.375,0.230,0.390,0.363,0.331,0.191,0.161,-,CALM,No
2017/04/22,17:10,0.376,0.230,0.387,0.360,0.329,0.190,0.161,south-southeast,0.8,No
2017/04/22,17:20,0.376,0.229,0.390,0.362,0.330,0.192,0.161,south-southeast,1.1,No
2017/04/22,17:30,0.374,0.229,0.388,0.362,0.328,0.191,0.160,south-southeast,1.1,No
2017/04/22,17:40,0.377,0.230,0.391,0.361,0.331,0.191,0.161,south,1.0,No
2017/04/22,17:50,0.376,0.229,0.391,0.361,0.328,0.190,0.161,-,CALM,No
2017/04/22,18:00,0.376,0.230,0.390,0.359,0.330,0.191,0.162,south,0.8,No
2017/04/22,18:10,0.375,0.229,0.392,0.361,0.330,0.190,0.160,south,0.6,No
2017/04/22,18:20,0.376,0.230,0.389,0.361,0.327,0.191,0.160,-,CALM,No
2017/04/22,18:30,0.376,0.229,0.390,0.361,0.332,0.190,0.160,south-southwest,1.0,No
2017/04/22,18:40,0.375,0.229,0.391,0.363,0.331,0.191,0.160,-,CALM,No
2017/04/22,18:50,0.376,0.229,0.389,0.360,0.329,0.190,0.160,southwest,1.2,No
2017/04/22,19:00,0.376,0.229,0.392,0.363,0.331,0.191,0.160,west-southwest,1.2,No
2017/04/22,19:10,0.377,0.230,0.391,0.362,0.329,0.191,0.161,west-northwest,1.8,No
2017/04/22,19:20,0.377,0.230,0.389,0.360,0.330,0.190,0.161,north-northeast,3.2,No
2017/04/22,19:30,0.375,0.229,0.391,0.362,0.330,0.191,0.161,north-northeast,2.9,No
2017/04/22,19:40,0.376,0.229,0.392,0.361,0.329,0.191,0.162,north,2.8,No
2017/04/22,19:50,0.374,0.230,0.389,0.361,0.331,0.191,0.161,north-northeast,2.2,No
2017/04/22,20:00,0.375,0.230,0.393,0.363,0.329,0.191,0.159,north,2.6,No
2017/04/22,20:10,0.376,0.230,0.391,0.362,0.330,0.191,0.161,north-northwest,2.5,No
2017/04/22,20:20,0.374,0.229,0.390,0.362,0.330,0.191,0.162,north,3.7,No
2017/04/22,20:30,0.377,0.230,0.393,0.362,0.329,0.191,0.162,north,4.3,No
2017/04/22,20:40,0.378,0.229,0.390,0.360,0.330,0.192,0.162,north,3.3,No
2017/04/22,20:50,0.376,0.228,0.390,0.361,0.330,0.191,0.160,north,1.8,No
2017/04/22,21:00,0.377,0.230,0.392,0.361,0.328,0.191,0.161,north-northeast,0.9,No
2017/04/22,21:10,0.376,0.230,0.389,0.362,0.331,0.191,0.161,north-northwest,2.0,No
2017/04/22,21:20,0.376,0.230,0.391,0.362,0.329,0.191,0.161,north-northwest,1.8,No
2017/04/22,21:30,0.379,0.229,0.391,0.363,0.329,0.191,0.162,north-northwest,4.2,No
2017/04/22,21:40,0.376,0.230,0.390,0.362,0.330,0.191,0.161,north-northwest,3.7,No
2017/04/22,21:50,0.377,0.230,0.390,0.362,0.329,0.192,0.161,north-northwest,3.8,No
2017/04/22,22:00,0.377,0.229,0.393,0.362,0.330,0.191,0.160,north,3.9,No
2017/04/22,22:10,0.376,0.230,0.390,0.362,0.331,0.191,0.161,north,3.3,No
2017/04/22,22:20,0.378,0.229,0.391,0.361,0.329,0.191,0.162,north,2.5,No
2017/04/22,22:30,0.376,0.229,0.392,0.360,0.330,0.191,0.161,north,3.2,No
2017/04/22,22:40,0.377,0.229,0.389,0.362,0.330,0.191,0.161,north-northeast,2.5,No
2017/04/22,22:50,0.378,0.231,0.389,0.362,0.328,0.191,0.162,north,3.2,No
2017/04/22,23:00,0.375,0.230,0.392,0.361,0.330,0.191,0.162,north-northeast,0.8,No
2017/04/22,23:10,0.376,0.229,0.389,0.362,0.331,0.191,0.162,north-northeast,1.4,No
2017/04/22,23:20,0.377,0.230,0.391,0.360,0.328,0.191,0.162,north,1.9,No
2017/04/22,23:30,0.376,0.230,0.390,0.360,0.332,0.191,0.162,north,3.1,No
2017/04/22,23:40,0.377,0.229,0.390,0.362,0.328,0.192,0.162,north,3.1,No
2017/04/22,23:50,0.377,0.231,0.390,0.362,0.328,0.192,0.161,north-northwest,2.4,No
